Showing default

LEMUR 2 JIN-LUEN, 43182

Orbit data source: Space-Track

LEMUR 2 JIN-LUEN, 43182 is a payload satellite owned by Spire (US) in SSO that was launched on Thu, 01 Feb 2018 UTC via a SOYUZ-2-1A launch vehicle from the Vostochny Cosmodrome (VOSTO). Payload-class satellites include a variety of spacecraft equipped with specific instruments for various scientific and technological missions. These include communications satellites like Starlink; space stations such as the ISS; scientific satellites like the Hubble; Earth observation satellites from companies like Planet Labs, Umbra, and HawkEye 360; GPS; miniature CubeSats for education and research; and military/defense satellites.

Loading next visibility...
Identifier
43182, 2018-014C
Orbit
SSO
Last TLE update
15 hours ago
Origin
Manufacturer
Spire/Glasgow
Mission
Operational Commercial Com/MetRO
Bus & Motor
CUBESAT 3U, Unknown motor
Mass
4.6 kg wet, 4.6 kg dry
Launch date (UTC)
2018-02-01 (7 years ago)
Launch vehicle
SOYUZ-2-1A
Launch site
Vostochny Cosmodrome (VOSTO)
Object type
Payload
Rocket body
Debris
Shape & HBR
Box + 2 Pan, 0.7 m
Radar Cross Section
0.124 m², Small (<0.1 m²)

Expand to show TLE details & history

TLE from 15 hours ago
0 LEMUR 2 JIN-LUEN
1 43182U 18014C   25183.21960269  .00017506  00000-0  47963-3 0  9997
2 43182  97.5560  96.0675 0010158 102.1404 258.0978 15.37325442406636
Epoch: 2025-07-02T05:16Z
TLE epoch observation values (Epoch: 2025-07-02T05:16:13.672Z)
Latitude
-0.00008°
Longitude
96.5067°
Altitude
458.57 km
Speed
7.637 km/s
True Right ascension
06h 24m 16s
True Declination
0° 00' 00"
Sunlit
Object was in daylight at epoch
Visualization orbit readout
Latitude
-82.11732°
Longitude
-155.16332°
Altitude
489.084 km
Speed
7.615 km/s
Apparent Right ascension
19h 28m 59s
Apparent Declination
-65° 57' 08"
Sunlit
Object is in full shadow
Visualization observer readout
Local Sidereal Time
08:13:26
Azimuth
169.966° S
Elevation
-63.209°
Doppler factor
1
Orbital elements
Apogee altitude
457.908 km
Perigee altitude
444.034 km
Semi-major axis
6,829.108 km
Eccentricity
0.00102
Inclination
97.556°
RAAN
96.0675°
Arg. of periapsis
102.1404°
True anomaly
Unknown
Mean anomaly
258.0978°
Eccentric anomaly
Unknown
Mean motion
3.84589 °/min
Orbital period
93.61 mins
BSTAR
0.00047963
Loading maneuver chart data...
Loading SW <> Apogee altitude chart data...
Loading historical data...
Loading historical data...
Loading historical data...
Loading historical data...
Loading historical data...
Loading historical data...
Loading historical data...

LEMUR 2 JIN-LUEN Visibility forecast

Observer location: undefined°, undefined°

Span
Click to sort rows by Start time (UTC) header in descending order
Start Az.
Max El. time (UTC)
Max El. Az.
Max El.
End time (UTC)
End Az.
6 mins2025-07-03 06:49:23.462Z24.397° NE2025-07-03 06:52:23.462Z105.039° ESE37.641°2025-07-03 06:55:23.462Z176.444° S
4 mins2025-07-03 18:54:23.462Z225.365° WSW2025-07-03 18:55:23.462Z249.726° W21.964°2025-07-03 18:58:23.462Z317.572° NNW
|